Regional Weather Roundup
Issued by NWS

Home | Current Version | Previous Version | Text Only | Print | Product List | Glossary On
Versions: 1 2 3 4 5 6 7 8 9 10 11 12 13 14 15 16 17 18 19 20 21 22 23 24 25 26 27 28 29 30 31 32 33 34 35 36 37 38 39 40 41 42 43 44 45 46 47 48 49 50
000
ASUS43 KLSX 051807
RWRMO

WEATHER SUMMARY FOR MISSOURI
NATIONAL WEATHER SERVICE SPRINGFIELD MO
1200 PM CST MON DEC 05 2016

NOTE: "FAIR" INDICATES FEW OR NO CLOUDS BELOW 12,000 FEET WITH NO
       SIGNIFICANT WEATHER AND/OR OBSTRUCTIONS TO VISIBILITY.
       CURRENT SKY AND/OR WEATHER CONDITIONS ARE NOT AVAILABLE FOR
       CHILLICOTHE AND FARMINGTON.

MOZ001>031-035>038-043-044-053-054-051900-
...NORTHERN AND WESTERN MISSOURI...

CITY           SKY/WX    TMP DP  RH WIND       PRES   REMARKS
KANSAS CTY INT MOSUNNY   47  37  68 S17G26    29.82F
6HR MIN TEMP:  30; 6HR MAX TEMP:  48;

KANSAS C DTWN  SUNNY     47  40  76 S12       29.84F
6HR MIN TEMP:  34; 6HR MAX TEMP:  47;

LEE`S SUMMIT   SUNNY     48  39  71 S16       29.85F
6HR MIN TEMP:  34; 6HR MAX TEMP:  48;

ST JOSEPH      SUNNY     50  39  66 S16       29.81F
6HR MIN TEMP:  28; 6HR MAX TEMP:  50;

CHILLICOTHE      N/A     47  40  76 S15G21    29.88F
6HR MIN TEMP:  28; 6HR MAX TEMP:  47; 6HR PCP:  0.04;

KIRKSVILLE     FOG       35  35 100 SE9       29.91F VSB 1/4 WCI  28
6HR MIN TEMP:  27; 6HR MAX TEMP:  35;


$$
MOZ066>068-077>081-088>096-101>105-051900-
...SOUTHWEST MISSOURI...

CITY           SKY/WX    TMP DP  RH WIND       PRES   REMARKS
SPRINGFIELD    CLOUDY    42  35  76 SE20G26   29.91F
6HR MIN TEMP:  31; 6HR MAX TEMP:  42;

JOPLIN         CLOUDY    48  37  65 S9        29.89F
6HR MIN TEMP:  31; 6HR MAX TEMP:  48;

BRANSON        CLOUDY    39  39 100 SE13G18   29.94F

$$
MOZ032>034-039>042-045>050-055>058-069>072-051900-
...CENTRAL MISSOURI...

CITY           SKY/WX    TMP DP  RH WIND       PRES   REMARKS
COLUMBIA       MOSUNNY   41  39  93 SE15      29.94F
6HR MIN TEMP:  28; 6HR MAX TEMP:  42;

JEFFERSON CITY CLOUDY    37  36  96 SE8       29.96F
6HR MIN TEMP:  26; 6HR MAX TEMP:  37;

ROLLA          CLOUDY    42  37  82 SE10      29.94F
6HR MIN TEMP:  31; 6HR MAX TEMP:  42;

SEDALIA        SUNNY     50  36  58 S16       29.91F
6HR MIN TEMP:  29; 6HR MAX TEMP:  50;

WHITEMAN AFB   MOSUNNY   47  40  75 S13       29.88F
WARRENSBURG    SUNNY     45  37  76 SE8       29.89F
OSAGE BEACH    CLOUDY    39  35  86 S9        29.95F

$$
MOZ051-052-059>065-051900-
...EAST CENTRAL MISSOURI...

CITY           SKY/WX    TMP DP  RH WIND       PRES   REMARKS
ST LOUIS INTL  CLOUDY    43  35  73 SE12      30.01F
6HR MIN TEMP:  36; 6HR MAX TEMP:  44;

SPIRIT OF STL  CLOUDY    43  37  79 SE9       30.00F
6HR MIN TEMP:  26; 6HR MAX TEMP:  43;

ST CHARLES     PTSUNNY   43  38  82 E13       30.00F
6HR MIN TEMP:  34; 6HR MAX TEMP:  43;


$$
MOZ072>076-082>087-097>100-106>115-051900-
...SOUTH CENTRAL AND SOUTHEAST MISSOURI...

CITY           SKY/WX    TMP DP  RH WIND       PRES   REMARKS
CAPE GIRARDEAU CLOUDY    42  35  76 E5        30.02F
6HR MIN TEMP:  30; 6HR MAX TEMP:  42;

FARMINGTON     MOSUNNY   45  37  73 S12       29.99F
6HR MIN TEMP:  29; 6HR MAX TEMP:  46;

POPLAR BLUFF   CLOUDY    42  37  82 E8        30.00F
6HR MIN TEMP:  34; 6HR MAX TEMP:  42;

WEST PLAINS    MOSUNNY   43  36  76 SE12      29.96F
6HR MIN TEMP:  30; 6HR MAX TEMP:  43;


$$



USA.gov is the U.S. government's official web portal to all federal, state and local government web resources and services.